Hourly Data Report for October 11, 2014

All times are specified in Local Standard Time (LST). Add 1 hour to adjust for Daylight Saving Time where and when it is observed.

FREDERICTON
NEW BRUNSWICK

45°52'08.000" N
66°32'14.000" W
20.70 m
8101505
71700
YFC

Download Data

Hourly Data (October 2014)
Hourly Data Report for October 11, 2014
Temp Definition
°C
Dew Point Temp Definition
°C
Rel Hum Definition
%
Wind Dir Definition
10's deg

Wind Spd Definition
km/h
Visibility Definition
km
Stn Press Definition
kPa
Hmdx Definition


Wind Chill Definition


Weather Definition


TIME
00:00 Legend Double Dagger 4.1 2.6 90 20 13 16.1 101.48     LegendNANA
01:00 Legend Double Dagger 3.9 2.4 90 20 11 16.1 101.53     LegendNANA
02:00 Legend Double Dagger 2.2 1.5 95 21 11 16.1 101.53     LegendNANA
03:00 Legend Double Dagger 2.2 1.5 95 20 5 16.1 101.53     LegendNANA
04:00 Legend Double Dagger 2.3 1.7 96 18 5 16.1 101.60     LegendNANA
05:00 Legend Double Dagger 1.4 1.0 97   0 16.1 101.64     LegendNANA
06:00 Legend Double Dagger 1.2 1.0 99 16 11 16.1 101.63     LegendNANA
07:00 Legend Double Dagger 1.6 1.6 100 21 9 16.1 101.72     LegendNANA
08:00 Legend Double Dagger 4.0 3.3 95 20 8 16.1 101.77     LegendNANA
09:00 Legend Double Dagger 5.8 4.0 88 LegendMM 4 16.1 101.77     LegendNANA
10:00 Legend Double Dagger 8.3 5.0 80 17 8 16.1 101.77     LegendNANA
11:00 Legend Double Dagger 9.7 5.5 75   0 16.1 101.70     LegendNANA
12:00 Legend Double Dagger 10.2 4.7 68 25 5 16.1 101.67     LegendNANA
13:00 Legend Double Dagger 10.6 5.3 70 21 8 16.1 101.62     LegendNANA
14:00 Legend Double Dagger 10.9 5.9 71 16 8 16.1 101.56     LegendNANA
15:00 Legend Double Dagger 11.0 5.1 67 20 17 16.1 101.53     LegendNANA
16:00 Legend Double Dagger 11.3 4.6 63 20 11 16.1 101.46     LegendNANA
17:00 Legend Double Dagger 11.4 4.6 63 19 9 16.1 101.44     LegendNANA
18:00 Legend Double Dagger 8.8 4.8 76   0 16.1 101.43     LegendNANA
19:00 Legend Double Dagger 7.4 5.2 86   0 16.1 101.46     LegendNANA
20:00 Legend Double Dagger 5.8 4.9 94 21 5 16.1 101.45     LegendNANA
21:00 Legend Double Dagger 4.2 3.9 98 21 9 16.1 101.46     LegendNANA
22:00 Legend Double Dagger 2.9 2.6 98 17 5 16.1 101.47     LegendNANA
23:00 Legend Double Dagger 1.4 1.3 99 18 9 16.1 101.49     LegendNANA

Notes on Data Quality.

Legend

  • E = Estimated
  • M = Missing
  • NA = Not Available
  • ‡ = Partner data that is not subject to review by the National Climate Archives
Date modified: